Weather History for Alpena, MI

Change the Weather History Date:

Monday, October 29, 2012

  Actual Average Record
Temperature  
Mean Temperature 40 °F 42 °F  
Max Temperature 43 °F 51 °F 73 °F (1989)
Min Temperature 37 °F 33 °F 16 °F (1965)
Degree Days  
Heating Degree Days 25 23  
Month to date heating degree days 483 538  
Since 1 July heating degree days 786 895  
Cooling Degree Days 0 0  
Month to date cooling degree days 0 0  
Year to date cooling degree days 482 289  
Moisture  
Dew Point 26 °F    
Average Humidity 55    
Maximum Humidity 64    
Minimum Humidity 45    
Precipitation  
Precipitation T in 0.08 in 0.46 in (1933)
Month to date precipitation 3.78 2.46  
Year to date precipitation 23.42 24.16  
Snow  
Snow T in 0.00 in 1.50 in (1968)
Month to date snowfall T 0.3  
Since 1 July snowfall T 0.3  
Snow Depth 0.00 in    
Sea Level Pressure  
Sea Level Pressure 30.15 in    
Wind  
Wind Speed 21 mph (North)    
Max Wind Speed 33 mph    
Max Gust Speed 45 mph    
Visibility 10 miles    
Events      
T = Trace of Precipitation, MM = Missing Value Source: NWS Daily Summary

Daily Weather History Graph

Daily Weather History Graph

Search for Another Location

Airport:

Trip Planner

Search our weather history database for the weather conditions in past years. The results will help you decide how hot, cold, wet, or windy it might be!

Date:

Astronomy

Oct. 29, 2012 Rise Set
Actual Time 8:09 AM EDT 6:25 PM EDT
Civil Twilight 7:38 AM EDT 6:56 PM EDT
Nautical Twilight 7:04 AM EDT 7:30 PM EDT
Astronomical Twilight 6:30 AM EDT 8:04 PM EDT
Moon 6:15 PM EDT (10/29) 8:00 AM EDT (10/29)
Length of Visible Light 11h 17m
Length of Day
10h 16m
Full, 100% of the Moon is Illuminated
Oct 29
Full
Oct 29
Full
Nov 6
Last Quarter
Nov 13
New
Nov 20
First Quarter

Hourly Weather History & Observations

Time (EDT) Temp. Windchill Dew Point Humidity Pressure Visibility Wind Dir Wind Speed Gust Speed Precip Events Conditions
12:54 AM 41.0 °F 32.5 °F 25.0 °F 53% 30.24 in 10.0 mi North 17.3 mph 25.3 mph N/A   Clear
1:54 AM 39.9 °F 32.1 °F 25.0 °F 55% 30.23 in 10.0 mi North 13.8 mph - N/A   Clear
2:54 AM 39.9 °F 32.9 °F 25.0 °F 55% 30.22 in 10.0 mi North 11.5 mph 20.7 mph N/A   Clear
3:54 AM 39.9 °F 32.1 °F 25.0 °F 55% 30.21 in 10.0 mi North 13.8 mph 25.3 mph N/A   Clear
4:54 AM 39.0 °F 30.3 °F 26.1 °F 60% 30.22 in 10.0 mi North 16.1 mph - N/A   Partly Cloudy
5:54 AM 39.0 °F 29.3 °F 26.1 °F 60% 30.22 in 10.0 mi North 19.6 mph - N/A   Partly Cloudy
6:54 AM 39.0 °F 29.9 °F 27.0 °F 62% 30.22 in 10.0 mi North 17.3 mph 26.5 mph N/A   Clear
7:54 AM 39.0 °F 29.9 °F 27.0 °F 62% 30.22 in 10.0 mi North 17.3 mph - N/A   Clear
8:01 AM 39.2 °F 30.2 °F 28.4 °F 65% 30.20 in 10.0 mi North 17.3 mph 23.0 mph N/A   Mostly Cloudy
8:54 AM 39.0 °F 29.9 °F 27.0 °F 62% 30.22 in 10.0 mi North 17.3 mph 24.2 mph N/A   Overcast
9:54 AM 39.9 °F 30.8 °F 27.0 °F 60% 30.22 in 10.0 mi North 18.4 mph 27.6 mph N/A   Overcast
10:54 AM 41.0 °F 30.9 °F 27.0 °F 57% 30.20 in 10.0 mi North 24.2 mph 31.1 mph N/A   Overcast
11:54 AM 42.1 °F 31.9 °F 27.0 °F 55% 30.20 in 10.0 mi North 26.5 mph 33.4 mph N/A   Overcast
12:54 PM 42.1 °F 33.1 °F 26.1 °F 53% 30.18 in 10.0 mi North 20.7 mph 33.4 mph N/A   Overcast
1:54 PM 43.0 °F 34.2 °F 27.0 °F 53% 30.17 in 10.0 mi North 20.7 mph 36.8 mph N/A   Overcast
2:54 PM 43.0 °F 34.8 °F 27.0 °F 53% 30.15 in 10.0 mi North 18.4 mph 34.5 mph N/A   Overcast
3:54 PM 43.0 °F 34.0 °F 27.0 °F 53% 30.13 in 10.0 mi North 21.9 mph 32.2 mph N/A   Overcast
4:54 PM 43.0 °F 34.2 °F 25.0 °F 49% 30.12 in 10.0 mi NNW 20.7 mph 32.2 mph N/A   Clear
5:54 PM 42.1 °F 33.1 °F 24.1 °F 49% 30.09 in 10.0 mi North 20.7 mph 31.1 mph N/A   Clear
6:54 PM 42.1 °F 32.8 °F 23.0 °F 47% 30.08 in 10.0 mi North 21.9 mph 28.8 mph N/A   Clear
7:54 PM 41.0 °F 30.9 °F 24.1 °F 51% 30.07 in 10.0 mi North 24.2 mph 34.5 mph N/A   Clear
8:54 PM 41.0 °F 31.9 °F 25.0 °F 53% 30.05 in 10.0 mi North 19.6 mph 29.9 mph N/A   Clear
9:54 PM 39.9 °F 28.6 °F 27.0 °F 60% 30.03 in 10.0 mi North 28.8 mph 38.0 mph N/A   Scattered Clouds
10:54 PM 39.0 °F 27.4 °F 27.0 °F 62% 29.99 in 10.0 mi North 28.8 mph 41.4 mph N/A   Overcast
11:54 PM 39.0 °F 28.5 °F 28.0 °F 65% 29.96 in 10.0 mi North 23.0 mph 39.1 mph N/A   Overcast